Temp
21 22 24 26 28 30 30 29 31 29 29 29 29 29 29 28 27 25 24 24 23 23 21 19 18 18 18 18 18 18 18 18 18 17 18 18 18 17 18 17 17 18 17 18 18 17 17 17 18
23 23 25 30 29 30 30 30 30 30 29 29 28 29 29 26 26 24 23 23 23 22 21 20 18 18 18 18 18 18 18 18 18 18 17 17 17 17 17 17 17 17 17 17 17 17 17 18 18
22 23 29 30 30 31 30 30 30 28 28 29 28 28 28 25 26 25 24 23 23 22 22 20 18 18 18 18 18 17 18 17 17 17 17 17 17 17 17 17 16 16 17 17 18 17 17 17 18
24 26 29 29 30 30 30 31 30 28 27 28 29 27 26 24 26 24 23 23 22 22 21 19 18 18 18 18 18 18 17 17 17 17 17 17 16 16 16 16 16 17 16 17 17 17 17 17 18
24 29 29 29 30 30 30 30 30 29 29 28 28 27 25 24 24 23 23 22 22 22 20 18 18 18 18 18 18 18 17 17 17 17 16 16 16 16 16 16 16 17 16 16 17 18 18 18 18
27 29 29 29 30 30 30 30 30 30 29 28 28 27 25 23 23 23 22 22 22 21 20 19 18 18 18 18 18 18 18 17 17 16 16 16 16 16 17 16 17 17 17 17 17 17 18 18 18
26 28 29 31 30 29 29 30 30 30 29 28 29 28 25 24 23 22 22 22 21 21 21 19 19 18 18 18 18 18 18 17 17 17 16 16 16 17 16 16 17 17 17 17 17 17 17 17 18
27 29 29 30 30 30 29 29 30 30 29 28 29 28 25 24 22 22 22 22 21 21 21 21 20 19 18 17 17 17 17 17 17 17 17 17 17 17 17 16 16 16 17 17 17 17 17 17 17
26 28 29 30 30 30 29 28 28 28 28 28 28 28 27 23 22 22 22 21 21 21 21 21 20 20 19 18 17 17 17 17 17 17 17 17 18 17 17 16 16 16 16 16 17 17 17 17 17
26 27 29 32 31 30 28 29 28 28 28 27 26 24 25 22 22 22 22 21 21 21 21 20 20 20 19 18 17 18 17 18 18 17 17 18 18 17 16 16 16 16 16 17 17 17 17 18 18
26 27 30 29 30 30 28 29 29 29 28 29 28 25 23 21 21 20 20 21 21 21 19 20 20 20 19 20 19 19 19 18 18 18 18 18 18 17 17 18 17 17 17 18 18 17 17 17 18
25 27 28 28 26 27 28 29 27 29 28 28 29 27 23 19 21 21 21 21 20 18 17 17 19 19 19 19 20 20 20 19 19 18 18 18 18 18 18 18 18 18 18 18 17 18 17 17 17
25 27 26 26 25 26 27 27 28 27 27 26 26 27 24 22 21 22 22 21 19 17 16 16 18 19 19 19 19 20 20 19 19 18 18 18 18 18 18 18 18 18 17 17 18 17 17 18 17
26 26 25 25 25 25 26 26 25 27 25 25 25 26 26 24 23 22 22 21 18 17 16 15 17 19 19 19 19 19 19 19 18 18 18 18 18 18 18 18 17 17 17 17 17 17 17 17 17
25 24 24 24 25 25 26 24 25 26 24 25 25 26 26 26 24 24 23 22 21 20 19 18 18 18 18 18 18 18 18 18 18 18 18 18 18 18 18 17 17 17 16 16 16 17 16 16 17
24 26 24 26 24 24 25 27 27 24 25 26 25 25 24 25 25 24 23 23 22 21 20 19 18 18 18 18 17 18 17 18 18 18 18 18 17 17 17 17 17 17 16 16 16 16 16 16 16
25 24 26 24 24 24 24 28 26 23 24 26 25 25 24 24 24 23 23 23 22 22 21 19 18 18 18 18 17 18 17 18 18 18 18 17 17 17 17 17 17 16 16 16 15 16 15 16 16
24 25 26 26 23 23 23 26 23 22 24 25 25 24 24 24 23 23 22 22 22 22 21 20 19 18 18 18 18 17 17 17 18 18 18 17 17 16 16 16 16 16 16 16 15 15 15 15 15
27 26 26 27 24 24 25 25 24 22 22 23 24 24 23 23 19 18 18 18 20 21 21 20 19 18 18 18 18 18 17 17 17 17 17 17 16 16 15 16 15 15 15 15 15 15 15 15 15
26 26 27 23 22 23 25 25 26 22 23 23 23 23 22 20 19 17 17 17 18 19 20 20 19 19 18 18 18 18 18 17 17 16 16 16 15 15 15 15 15 14 14 15 14 14 14 15 14
24 25 26 24 21 23 24 24 25 22 21 19 19 19 18 18 19 17 16 16 16 18 19 20 20 19 18 18 18 17 17 17 16 15 15 15 15 14 14 15 15 14 14 13 14 13 13 13 14
23 25 25 22 22 23 24 25 26 24 20 19 19 18 18 17 16 16 15 15 14 14 16 19 19 19 18 18 17 16 17 17 17 16 15 14 15 15 14 14 15 14 13 13 13 13 12 12 13
23 23 23 23 24 23 22 23 28 27 23 21 20 19 17 16 16 15 12 11 10 12 14 17 18 18 18 17 17 17 17 17 16 15 14 13 13 13 13 13 13 12 13 13 12 12 12 12 12
21 21 21 22 21 20 25 24 27 23 24 24 21 18 16 15 14 12 10 9 9 9 11 13 15 15 15 16 16 16 15 14 14 13 13 12 12 12 12 12 12 12 12 11 11 11 11 11 11
22 22 19 19 18 21 20 23 25 23 21 24 20 17 16 15 14 12 10 9 8 8 8 10 11 11 13 14 14 14 13 12 12 12 12 11 12 11 10 10 11 10 10 10 10 10 10 10 10
21 23 20 19 20 21 18 20 24 20 17 20 19 16 14 14 13 12 10 8 8 7 7 7 8 8 9 11 11 11 11 11 10 11 11 11 10 10 9 10 10 10 10 10 10 10 10 10 10
20 21 24 21 20 23 22 22 16 15 15 16 15 14 13 13 12 11 11 9 9 8 8 7 8 8 8 8 9 9 9 10 9 9 9 9 9 9 9 9 9 9 9 9 9 10 10 10 10
20 22 20 20 18 20 22 23 23 15 15 15 14 13 13 12 11 11 10 9 9 8 8 8 8 8 8 8 8 8 8 8 9 9 8 8 8 8 8 8 8 8 8 8 8 9 9 9 9
18 20 21 22 22 20 22 23 23 21 17 14 14 14 12 11 11 10 10 9 8 8 8 8 8 8 8 8 8 8 8 8 8 8 7 7 7 7 7 7 7 7 7 7 7 7 8 8 8
21 21 22 20 21 21 22 23 17 17 17 15 14 13 12 11 11 10 9 9 8 8 8 8 7 7 7 7 7 7 7 7 7 6 6 6 6 6 6 6 6 6 6 6 6 6 6 6 6
Height
775 776 776 774 782 766 769 773 757 770 770 769 766 770 776 779 784 802 798 801 804 809 813 817 819 820 822 823 825 826 827 829 829 830 830 830 830 831 832 831 832 832 832 832 832 832 832 831 830
777 777 775 764 779 773 769 762 769 766 770 769 772 774 776 791 785 793 799 802 806 810 814 818 820 822 824 825 827 828 830 831 832 832 833 833 833 834 835 834 835 835 835 835 835 835 835 834 834
776 776 768 767 766 765 768 763 764 770 770 771 776 775 780 791 791 794 799 804 808 812 815 818 821 823 825 827 829 831 831 833 834 834 835 836 836 836 837 837 837 837 838 838 838 837 837 837 837
775 774 766 774 767 764 762 760 763 771 775 774 773 784 787 793 792 796 802 806 810 814 817 820 823 825 827 829 831 832 834 835 836 837 837 838 839 840 840 840 840 840 840 840 840 840 840 840 840
774 764 769 772 763 763 760 759 761 770 771 775 775 786 790 795 797 801 805 808 812 815 819 822 824 827 828 830 832 834 835 837 838 839 840 840 841 842 842 843 843 843 843 843 843 843 842 842 842
771 762 770 773 764 761 759 759 762 765 769 774 779 782 791 796 799 803 806 810 813 816 820 823 825 827 829 831 833 835 836 838 840 841 842 843 843 844 844 845 845 845 845 845 845 845 844 844 844
769 766 765 756 761 767 762 757 764 766 771 775 770 781 791 796 800 804 807 811 815 818 821 824 827 829 831 833 835 836 838 840 841 842 844 844 845 846 846 847 847 847 847 847 846 846 846 846 845
764 759 763 758 762 766 759 761 759 764 770 771 771 781 792 793 800 804 808 812 815 819 822 824 827 830 833 835 836 838 840 842 843 844 845 846 847 848 848 849 849 849 849 849 848 848 848 848 847
766 767 766 759 759 758 759 765 765 766 771 772 775 775 780 792 799 804 808 812 816 819 822 825 828 830 833 835 837 839 841 842 844 846 847 848 850 850 850 850 850 850 850 850 850 850 850 849 849
766 767 756 741 746 752 760 759 767 771 772 777 780 786 787 794 799 803 807 811 815 819 822 826 828 831 834 836 838 841 842 844 845 847 848 850 851 851 850 851 851 852 852 852 852 851 851 850 851
761 764 746 751 749 750 759 761 761 766 775 768 776 784 790 796 800 805 810 812 814 818 823 825 828 831 834 837 839 841 843 844 846 847 849 850 851 851 851 851 852 852 852 853 852 852 852 852 851
765 755 753 752 760 758 761 760 768 764 770 768 767 776 788 797 799 802 805 810 814 819 823 825 828 831 833 836 838 840 842 844 845 847 849 850 850 851 852 852 853 853 853 853 853 852 852 852 852
762 753 759 758 763 760 760 765 764 769 769 773 774 775 784 792 796 800 803 808 814 818 822 824 827 830 833 836 838 839 841 843 845 846 848 849 850 851 852 853 853 853 854 854 853 853 852 852 852
749 754 759 762 763 766 767 769 771 766 772 774 776 776 780 786 791 797 801 806 812 817 820 823 826 829 832 835 837 839 841 843 844 846 847 849 850 851 852 853 853 854 854 854 854 853 853 852 852
751 763 764 764 763 767 764 777 772 767 771 773 775 775 778 781 787 791 797 802 807 812 817 821 824 828 831 833 836 839 840 842 844 846 847 849 850 851 852 853 854 854 854 854 854 854 853 852 851
758 754 769 758 764 768 769 768 760 769 770 770 773 775 779 781 785 789 795 800 805 809 813 818 822 826 829 832 835 837 839 841 843 845 847 848 849 851 852 852 853 854 854 854 854 854 853 852 851
751 761 758 768 761 766 770 760 760 770 769 768 772 775 778 781 786 790 794 798 802 806 811 816 820 824 827 830 833 836 838 840 842 844 846 848 849 850 851 852 852 853 853 854 853 853 853 852 850
752 756 749 751 764 766 770 761 768 772 769 769 770 774 779 780 786 790 794 798 801 804 808 813 818 821 825 829 832 835 837 840 842 844 845 847 849 850 851 852 853 853 854 854 854 853 853 852 850
733 744 745 743 754 763 760 760 767 772 773 772 772 774 779 782 791 795 797 799 801 803 806 810 815 819 823 827 830 833 836 839 841 843 845 847 849 850 852 852 853 854 854 854 854 853 852 851 850
735 740 743 758 763 765 757 760 755 770 769 771 773 776 780 786 790 795 797 799 800 801 804 808 812 817 821 825 828 831 834 838 840 843 845 847 848 850 852 852 853 853 853 853 854 853 853 852 851
742 741 739 752 768 762 758 765 759 767 773 779 781 781 786 787 788 793 796 798 799 800 802 806 809 814 818 823 827 830 833 837 839 842 844 846 848 849 850 851 852 853 853 853 853 853 853 853 852
749 738 737 758 763 767 755 763 747 755 770 775 777 780 782 788 791 794 796 798 800 801 802 804 808 812 816 821 825 828 830 833 836 840 843 845 847 848 849 850 851 852 852 852 853 853 852 852 852
742 741 747 754 754 759 766 769 732 736 758 764 769 775 782 787 790 794 799 801 802 802 803 805 807 811 815 818 822 826 828 831 836 839 841 843 845 846 847 848 849 850 850 850 850 850 850 850 849
742 750 757 759 764 778 749 759 737 753 744 743 761 773 782 787 792 797 801 802 803 803 803 803 805 808 813 817 820 823 826 830 834 837 840 842 844 846 847 848 849 849 849 849 848 848 848 847 846
736 746 777 783 787 772 763 756 738 740 744 736 757 772 781 786 790 796 801 803 804 805 805 806 808 810 813 815 819 822 826 831 833 837 840 843 845 847 847 847 847 848 848 847 846 846 845 844 844
737 732 755 771 768 761 775 765 733 747 756 750 760 773 783 787 791 796 801 804 806 807 808 810 811 812 814 817 820 823 827 830 834 838 840 843 846 847 847 846 846 846 846 846 845 844 844 843 842
743 739 726 751 757 747 745 741 757 760 761 761 767 775 782 788 794 798 801 805 808 810 811 812 813 815 818 821 823 826 829 832 835 839 841 844 846 847 847 847 848 847 846 844 843 842 842 841 839
728 725 752 747 769 759 738 738 731 756 757 761 767 773 781 788 794 800 803 806 810 812 814 816 818 820 822 824 827 830 833 835 838 841 842 845 846 847 847 846 846 846 846 845 843 841 840 839 837
737 730 729 726 728 745 739 730 714 721 738 751 760 767 778 788 794 800 805 809 812 814 817 818 821 823 825 828 830 833 836 838 840 842 844 845 846 848 848 847 846 845 844 843 842 841 839 837 835
713 714 718 732 735 734 729 722 732 731 732 745 758 768 779 786 792 799 804 809 813 817 819 822 824 825 828 830 833 835 838 841 842 844 845 846 846 847 847 846 845 844 843 842 841 840 838 836 833
Wind_Speed
3 3 4 5 5 6 2 5 3 7 6 4 6 6 10 12 9 5 14 10 17 16 14 13 13 11 12 13 14 15 15 15 14 14 15 15 16 16 16 16 17 17 17 17 18 17 16 17 17
4 4 5 3 7 8 7 6 5 6 8 7 6 2 2 10 10 13 12 15 17 16 14 12 13 12 12 13 14 13 14 14 14 14 14 15 15 15 15 15 16 16 16 16 16 16 16 16 17
4 5 4 4 8 5 6 5 10 8 6 4 4 4 3 7 10 12 16 18 16 14 13 13 13 12 13 13 13 12 13 13 14 14 14 14 14 15 15 15 15 15 15 15 15 15 15 16 16
5 5 4 8 10 4 5 7 10 9 5 2 2 8 6 5 9 9 18 17 15 14 12 13 13 12 12 12 13 12 12 12 13 13 13 13 14 14 14 14 14 14 14 14 14 14 14 14 14
6 4 7 10 3 4 4 7 9 9 9 8 5 6 5 6 10 17 18 16 16 14 13 13 14 12 11 12 12 11 12 12 12 11 12 13 13 13 13 13 12 13 13 13 13 12 11 12 12
4 4 7 10 9 6 6 8 7 6 7 8 5 9 7 11 14 17 16 15 15 14 14 13 13 12 11 10 12 11 12 12 11 11 11 11 12 12 11 10 10 11 11 11 11 11 11 10 10
9 8 11 11 10 8 6 10 9 6 7 8 4 9 8 13 16 18 16 15 14 13 13 12 12 12 11 10 10 11 11 11 10 10 10 10 10 10 8 9 9 9 9 9 9 10 10 10 9
6 5 9 7 10 9 10 11 4 6 7 6 2 6 9 16 20 18 16 15 13 13 13 13 12 11 10 10 10 10 10 9 9 9 8 8 7 7 9 9 8 8 8 9 9 8 8 8 8
3 6 10 12 9 10 12 10 5 4 7 5 6 5 9 23 22 20 18 15 14 13 13 12 12 12 12 12 10 9 9 8 7 7 8 7 4 5 5 4 6 7 7 8 8 7 7 7 7
7 9 14 8 7 8 14 11 11 8 9 7 8 8 20 23 22 21 18 18 16 15 14 13 12 12 12 11 10 9 7 6 7 5 5 4 3 3 4 4 5 5 6 7 7 7 7 6 3
7 11 8 3 3 3 13 10 10 8 11 10 13 14 18 19 19 19 19 17 17 15 12 10 13 12 12 10 10 9 8 7 6 6 4 4 3 3 3 2 2 2 4 2 5 5 3 4 3
8 13 5 5 5 6 13 10 8 10 6 6 5 19 18 18 19 22 21 20 19 16 14 14 12 13 12 10 9 8 8 7 7 6 5 5 4 3 3 3 2 1 1 2 3 3 3 4 4
13 7 6 4 7 6 8 11 7 10 5 4 4 14 17 17 19 19 18 18 17 17 15 14 13 14 13 11 10 9 8 8 7 7 7 5 4 4 3 2 1 0 1 2 3 3 4 5 5
13 6 8 8 9 6 9 7 4 8 5 6 7 12 15 16 19 20 20 20 19 17 16 14 15 15 13 12 10 9 8 7 7 7 7 6 5 4 3 2 1 0 1 2 3 4 5 5 6
6 10 7 8 10 6 6 8 11 8 5 7 11 11 12 14 19 20 20 20 20 19 18 18 17 16 14 13 11 10 9 8 8 7 7 6 5 4 3 3 2 2 2 3 4 5 5 6 6
10 10 9 14 11 7 8 14 14 5 8 10 12 11 10 12 16 16 18 18 19 19 20 19 18 18 16 14 12 10 9 9 8 8 7 7 6 5 3 3 3 3 3 4 5 5 6 6 6
15 11 18 9 13 6 13 9 12 5 8 10 10 10 10 12 13 15 16 18 18 19 20 20 19 18 17 15 12 11 10 9 9 8 7 8 6 5 4 3 3 3 3 4 4 5 5 6 7
17 16 19 14 14 11 14 10 10 5 8 9 10 9 9 11 11 12 13 15 17 18 19 20 19 19 18 15 13 11 10 9 9 8 8 7 6 5 3 1 1 2 3 4 5 5 6 7 8
15 20 14 17 9 13 16 16 11 9 7 8 8 8 8 9 7 5 6 8 11 17 19 21 21 20 20 17 16 14 12 11 9 8 6 6 5 3 1 1 1 3 4 5 6 6 7 7 7
12 17 18 7 7 9 14 16 11 9 9 6 7 7 7 7 8 6 5 7 12 16 19 20 21 20 20 17 15 13 12 10 8 6 5 4 4 3 2 1 2 3 4 5 6 6 8 8 6
13 17 15 7 9 7 6 12 15 11 8 7 6 5 5 6 7 5 4 4 6 13 18 19 20 20 20 17 15 10 10 9 8 8 6 5 4 2 1 2 3 5 6 6 7 6 7 9 10
17 6 6 11 13 6 12 7 21 17 15 13 10 9 7 6 5 4 4 3 3 4 9 17 18 19 20 18 17 16 13 12 11 10 8 7 6 4 2 2 5 5 6 6 7 6 6 7 9
9 11 9 11 12 1 8 5 4 15 14 16 14 11 8 6 5 5 4 3 3 3 5 13 16 17 18 19 17 15 11 14 12 11 11 9 6 5 2 0 1 3 6 7 8 7 7 8 9
17 14 10 5 3 5 12 11 11 9 15 17 16 12 10 8 7 7 7 6 6 5 8 11 17 18 17 17 15 15 17 14 17 15 11 9 6 5 4 5 3 4 5 6 7 8 9 10 13
15 17 4 5 3 7 2 9 10 8 5 5 17 14 11 9 9 9 8 8 8 9 10 11 15 16 17 19 18 19 17 15 15 13 11 9 8 5 5 5 6 6 6 7 7 8 9 10 12
19 18 6 9 8 8 3 8 5 6 4 4 14 13 11 10 9 9 11 11 11 12 13 15 17 19 18 19 19 18 19 19 17 14 11 9 7 5 5 6 6 6 7 7 8 8 9 10 12
15 19 4 2 3 7 7 7 5 6 7 12 15 15 13 11 10 11 13 13 13 14 15 18 20 22 22 22 21 20 18 17 16 13 11 9 8 7 8 8 9 9 9 10 10 9 11 12 13
9 12 8 4 9 7 8 10 8 12 16 17 17 16 15 13 12 11 13 14 14 15 16 17 18 19 19 19 19 18 17 16 14 13 12 10 9 8 7 7 8 8 9 10 10 10 11 13 13
6 11 8 6 8 7 8 7 3 14 18 19 19 17 16 15 13 12 14 14 15 15 16 17 17 17 17 16 16 16 15 14 13 12 11 10 8 7 7 7 7 8 9 10 11 11 12 14 15
18 16 20 8 9 4 5 10 2 4 14 17 17 16 16 16 14 13 16 16 16 15 15 16 16 17 16 16 15 15 14 13 12 11 9 8 7 7 8 9 10 11 12 13 12 13 13 15 17
Wind_Direction
265 254 230 239 241 235 124 125 84 120 136 74 60 14 43 28 8 50 136 136 135 138 143 140 139 136 124 116 116 115 112 103 98 98 94 90 88 88 87 84 83 80 78 77 79 76 74 73 73
223 228 221 268 256 219 135 121 164 94 87 104 111 146 83 76 62 116 131 140 140 139 140 143 144 137 129 124 122 115 120 116 107 101 98 97 96 93 89 86 85 84 82 82 81 79 75 74 73
199 228 239 227 248 281 116 156 108 116 116 131 118 35 32 82 116 127 128 140 139 137 137 146 148 140 137 131 126 124 122 120 116 108 101 99 98 96 93 90 88 84 84 83 82 80 77 73 72
192 201 237 240 211 65 65 128 129 141 114 121 54 102 97 11 121 123 140 142 137 139 132 144 143 141 140 132 133 132 126 119 114 110 106 102 99 98 97 94 90 86 81 78 79 79 79 76 74
212 256 227 229 196 125 112 122 154 160 142 153 180 121 90 121 110 133 141 145 144 142 136 142 144 145 147 145 137 139 135 122 116 111 107 105 102 100 99 96 91 84 80 77 77 79 80 79 74
212 261 226 210 186 147 139 155 167 157 137 120 162 134 105 134 142 142 145 147 149 145 145 147 150 145 146 150 150 145 140 129 123 116 110 107 105 102 101 97 90 83 79 76 74 74 75 79 80
254 210 228 216 165 171 155 165 176 166 152 157 132 154 120 152 149 149 149 144 148 150 151 148 147 147 143 144 147 146 142 135 130 122 118 112 107 107 107 97 86 80 77 77 77 73 74 79 83
271 249 223 223 173 180 149 163 173 176 136 90 198 158 166 155 154 154 153 151 151 156 157 155 153 152 148 140 144 144 141 133 131 121 119 111 104 95 80 72 90 86 81 77 76 75 72 71 74
271 235 214 202 210 144 156 163 178 61 132 175 153 47 121 149 156 157 158 159 158 162 165 161 161 160 157 149 148 146 146 141 135 122 114 91 103 101 96 128 93 85 76 70 65 62 58 57 50
221 228 223 214 202 163 175 185 160 172 161 165 143 115 131 152 162 165 169 171 169 167 168 170 170 167 162 151 155 153 150 143 145 143 141 126 127 150 124 100 87 81 64 46 41 45 52 30 11
199 236 232 185 194 196 174 193 164 198 187 178 180 151 148 164 167 170 177 179 176 169 166 176 175 174 169 166 164 160 163 158 158 156 152 141 134 150 139 38 80 54 45 16 13 9 17 19 10
213 232 282 148 150 173 174 176 190 204 85 39 129 154 159 172 183 180 184 181 179 182 176 187 182 179 182 175 177 177 179 178 172 170 165 161 151 151 156 152 153 183 7 357 9 3 357 349 346
215 189 198 173 155 173 146 180 185 200 132 121 147 158 170 176 186 188 186 183 177 185 187 184 186 184 184 181 186 182 182 181 179 174 176 174 170 171 171 157 162 142 1 359 351 343 337 332 329
199 183 179 172 159 155 179 165 183 160 159 190 165 177 180 180 187 183 184 182 184 186 188 186 186 187 184 186 182 184 184 182 180 182 184 184 186 187 192 189 198 195 338 342 338 333 330 326 322
159 164 171 191 172 155 202 196 212 137 189 181 191 181 186 188 188 185 185 184 184 187 185 185 185 188 187 187 184 182 183 184 184 185 184 190 191 197 211 216 243 260 293 327 324 321 324 322 318
178 205 184 180 176 155 204 222 192 168 191 186 185 179 185 189 190 186 184 185 186 183 182 182 183 185 187 187 184 184 185 183 183 182 185 191 194 191 202 235 250 252 267 293 309 320 323 317 315
190 196 201 154 195 149 197 224 143 182 199 186 180 184 188 178 186 190 188 190 188 187 185 182 184 185 184 184 183 184 183 183 184 185 187 188 189 194 206 224 240 246 269 288 301 307 312 314 312
187 222 198 189 189 197 197 241 146 159 189 183 185 170 181 181 183 177 190 197 197 193 189 187 185 184 182 180 182 184 184 187 188 193 196 194 197 202 211 236 296 303 301 299 300 305 307 306 307
200 204 193 210 158 191 207 218 184 174 177 186 180 178 169 174 135 176 199 213 217 202 195 191 188 186 182 183 185 185 188 189 191 196 199 196 198 189 194 298 320 320 315 312 309 310 311 314 315
220 203 210 77 161 215 209 220 181 186 198 195 188 185 174 177 179 172 192 203 210 209 202 195 192 188 186 185 186 188 186 181 184 174 165 164 156 158 164 320 328 328 322 315 311 310 312 311 320
211 207 196 195 169 212 194 231 196 201 192 186 194 191 189 202 194 181 181 180 197 207 202 199 194 190 186 183 177 168 156 155 151 152 148 148 146 158 182 283 299 315 323 321 318 316 316 317 323
205 212 231 145 171 206 199 242 201 193 201 201 190 193 177 176 178 170 168 135 128 186 210 200 195 190 186 182 176 174 170 166 160 150 140 137 149 181 198 272 306 330 330 328 321 319 313 310 304
211 149 160 183 205 202 196 245 240 185 204 202 192 182 171 159 153 138 108 114 100 127 175 196 189 185 185 181 182 180 176 146 141 138 145 137 136 146 159 84 353 330 320 301 296 301 286 275 278
136 121 110 109 170 230 217 213 233 184 216 204 179 172 161 150 130 106 99 96 87 101 146 145 159 166 174 179 182 178 151 143 146 141 141 138 133 104 56 39 6 342 329 316 300 291 286 283 284
167 160 148 192 209 234 7 219 248 93 67 213 170 167 156 146 136 124 109 96 91 93 114 125 137 127 140 149 149 138 134 144 141 137 128 111 98 89 42 42 29 13 352 334 321 310 304 298 291
195 182 161 189 197 206 153 223 217 102 106 145 152 154 149 145 132 122 112 106 99 96 99 109 114 114 126 132 132 134 137 133 124 118 110 99 93 75 56 50 40 22 8 356 346 333 321 312 306
200 213 226 127 10 225 195 242 159 148 150 150 158 161 160 150 140 130 122 114 108 102 99 100 101 101 103 108 115 115 116 116 109 105 98 90 86 65 45 36 24 13 7 0 351 342 332 323 316
213 168 192 216 167 208 196 226 227 197 191 178 174 175 162 152 144 137 129 123 117 108 104 101 99 99 101 101 100 99 99 98 98 95 90 83 69 58 45 31 20 7 360 355 349 341 332 325 320
162 187 218 221 216 211 227 226 200 205 187 185 178 173 163 158 153 145 135 128 122 117 114 112 109 108 104 103 103 102 99 98 96 91 82 75 66 49 35 18 9 5 360 353 347 339 334 330 324
212 198 197 202 186 237 282 241 32 21 175 173 169 163 164 161 154 147 142 136 130 123 119 116 113 110 108 107 104 98 96 93 89 85 78 72 61 41 22 10 3 358 354 350 346 340 333 326 321